GW2451 Weather Reports


time (UTC)temp
F
wind
direction
speed
knots
gust
knots
rain 1hr
in
rain 24hr
in
rain mn
in
humidity
%
barometer
mb
20260506221542 50 42 1.7 5.2 0.00 0.84 0.24 62 1012.8
20260506220048 50 351 0.9 3.5 0.00 0.84 0.24 62 1012.8
20260506214551 50 55 2.6 7.0 0.00 1.03 0.24 62 1012.5
20260506213046 51 24 2.6 6.1 0.00 1.03 0.24 62 1012.1
20260506211543 51 315 1.7 5.2 0.00 1.03 0.24 61 1011.9
20260506210044 52 319 0.9 6.1 0.00 1.03 0.24 61 1011.9
20260506204544 52 16 0.9 7.0 0.00 1.27 0.24 60 1011.9
20260506203047 54 334 0.9 3.5 0.00 1.27 0.24 57 1011.8
20260506201546 54 308 1.7 4.3 0.00 1.27 0.24 50 1011.7
20260506200049 54 300 0.9 3.5 0.00 1.27 0.24 48 1011.7
20260506194544 54 256 0.9 7.8 0.00 1.33 0.24 49 1011.9
20260506193040 55 281 1.7 5.2 0.00 1.33 0.24 50 1012.0
20260506191540 55 301 1.7 4.3 0.00 1.33 0.24 48 1012.0
20260506190046 55 266 0.9 3.5 0.00 1.33 0.24 50 1012.1
20260506184543 55 44 2.6 7.8 0.00 1.33 0.24 51 1012.2
20260506183048 55 130 1.7 4.3 0.00 1.33 0.24 50 1012.1
20260506181554 54 257 2.6 7.0 0.00 1.33 0.24 56 1012.2
20260506180110 53 283 1.7 7.0 0.00 1.33 0.24 62 1012.4
20260506174544 54 342 0.9 5.2 0.00 1.33 0.24 62 1012.3
20260506173113 53 288 4.3 8.7 0.00 1.33 0.24 57 1011.9
20260506171544 54 0 1.7 7.0 0.00 1.33 0.24 60 1012.1
20260506170052 55 326 1.7 4.3 0.00 1.33 0.24 61 1012.5
20260506164542 55 325 1.7 8.7 0.00 1.33 0.24 62 1012.1
20260506163044 55 71 2.6 7.8 0.00 1.33 0.24 64 1011.7
20260506161552 55 346 2.6 7.8 0.00 1.33 0.24 67 1011.5
20260506160046 55 320 0.9 7.0 0.00 1.33 0.24 66 1011.5
20260506154544 54 315 1.7 7.8 0.00 1.33 0.24 70 1011.5
20260506153047 54 55 1.7 7.8 0.00 1.33 0.24 73 1011.1
20260506151546 53 315 1.7 6.1 0.00 1.33 0.24 76 1010.8
20260506150046 51 315 0.9 4.3 0.00 1.33 0.24 82 1010.5
20260506144559 50 12 1.7 3.5 0.00 1.33 0.24 87 1010.5
20260506143041 49 276 1.7 6.1 0.00 1.33 0.24 90 1010.3
20260506141545 48 0 0.0 2.6 0.00 1.33 0.24 93 1010.2
20260506140045 48 317 0.0 2.6 0.00 1.33 0.24 94 1010.0
20260506134549 47 268 0.0 2.6 0.00 1.33 0.24 94 1010.2
20260506133045 47 0 0.0 1.7 0.00 1.33 0.24 95 1010.1
20260506131547 46 0 0.0 1.7 0.00 1.33 0.24 95 1010.1
20260506130049 46 0 0.0 1.7 0.00 1.33 0.24 95 1009.8
20260506124546 46 252 0.0 1.7 0.00 1.33 0.24 95 1009.6
20260506123044 46 0 0.0 0.9 0.00 1.33 0.24 95 1009.4
20260506121542 45 0 0.0 0.9 0.00 1.33 0.24 95 1009.4
20260506120054 45 0 0.0 0.9 0.00 1.33 0.24 95 1009.4
20260506114546 45 0 0.0 0.0 0.00 1.33 0.24 95 1009.3
20260506113045 45 0 0.0 0.0 0.00 1.33 0.24 95 1008.9
20260506111541 45 0 0.0 0.9 0.00 1.33 0.24 95 1008.6
20260506110043 44 0 0.0 1.7 0.00 1.33 0.24 95 1008.4
20260506104548 44 323 0.0 1.7 0.00 1.33 0.24 95 1008.1
20260506103045 45 0 0.0 1.7 0.00 1.33 0.24 95 1008.1
20260506101542 44 0 0.0 1.7 0.01 1.33 0.24 94 1008.2
20260506100044 44 0 0.0 1.7 0.01 1.33 0.24 94 1007.4
20260506094544 45 0 0.0 1.7 0.01 1.33 0.24 94 1007.4
20260506093045 45 0 0.0 1.7 0.01 1.33 0.24 94 1007.9
20260506091545 45 0 0.0 2.6 0.01 1.32 0.23 94 1008.6
20260506090044 45 324 0.0 3.5 0.04 1.32 0.23 94 1008.3
20260506084542 45 304 0.9 2.6 0.07 1.32 0.23 94 1008.0
20260506083042 45 321 0.0 1.7 0.08 1.32 0.23 94 1007.8
20260506081545 45 55 0.0 1.7 0.09 1.30 0.21 94 1007.7
20260506073047 46 0 0.0 0.9 0.06 1.24 0.15 94 1007.9
20260506071539 46 0 0.0 0.9 0.03 1.21 0.12 94 1007.7
20260506061542 46 0 0.0 0.9 0.04 1.17 0.09 94 1008.0
20260506044548 47 36 0.0 2.6 0.04 1.12 0.03 94 1008.5
20260506043046 47 64 0.0 2.6 0.04 1.11 0.02 94 1008.5
20260506041552 47 20 0.0 1.7 0.05 1.10 0.01 94 1008.6
20260506040044 47 0 0.0 1.7 0.07 1.09 0.00 94 1008.8
20260506034553 48 0 0.0 1.7 0.11 1.08 1.08 94 1009.1
20260506033042 48 324 0.0 3.5 0.14 1.07 1.07 94 1009.2
20260506031545 49 0 0.9 2.6 0.16 1.04 1.04 94 1009.2
20260506030047 49 0 0.0 0.9 0.17 1.02 1.02 94 1009.2
20260506024555 49 0 0.0 0.9 0.17 0.97 0.97 94 1009.3
20260506023042 49 9 0.0 0.9 0.16 0.93 0.93 94 1009.1
20260506021551 49 0 0.0 1.7 0.13 0.88 0.88 94 1008.8
20260506020044 49 352 0.0 3.5 0.10 0.85 0.85 94 1008.6
20260506014544 49 43 0.9 2.6 0.06 0.80 0.80 94 1008.5
20260506013047 49 59 0.9 2.6 0.05 0.77 0.77 94 1008.6
20260506011607 49 0 0.0 1.7 0.05 0.75 0.75 94 1008.6
20260506010048 49 337 0.9 3.5 0.09 0.75 0.75 94 1008.3
20260506004546 49 55 0.0 2.6 0.09 0.74 0.74 93 1008.1
20260506003044 49 267 1.7 3.5 0.07 0.72 0.72 93 1008.8
20260506001544 49 67 0.0 4.3 0.06 0.70 0.70 93 1007.9
20260506000051 49 40 0.9 5.2 0.03 0.66 0.66 93 1007.8
20260505234551 49 16 0.0 3.5 0.05 0.65 0.65 93 1007.8
20260505233046 49 0 0.9 4.3 0.13 0.65 0.65 92 1007.8
20260505231544 50 42 0.0 3.5 0.13 0.64 0.64 92 1008.1
20260505230043 50 321 0.0 2.6 0.14 0.63 0.63 91 1008.4
20260505224543 50 0 0.9 3.5 0.16 0.60 0.60 91 1008.5
20260505223047 51 310 0.0 2.6 0.12 0.52 0.52 91 1008.0